Regional Weather Roundup
Issued by NWS

Home | Current Version | Previous Version | Text Only | Print | Product List | Glossary Off
Versions: 1 2 3 4 5 6 7 8 9 10 11 12 13 14 15 16 17 18 19 20 21 22 23 24 25 26 27 28 29 30 31 32 33 34 35 36 37 38 39 40 41 42 43 44 45 46 47 48 49 50

000
ASUS43 KIND 280559
RWRIN

WEATHER ROUNDUP FOR INDIANA
NATIONAL WEATHER SERVICE INDIANAPOLIS IN
200 AM EDT THU MAY 28 2015

NOTE: "FAIR" INDICATES FEW OR NO CLOUDS BELOW 12,000 FEET WITH NO
SIGNIFICANT WEATHER AND/OR OBSTRUCTIONS TO VISIBILITY.

* - STATION DOES NOT REPORT WEATHER SUCH AS PRECIPITATION OR FOG.

+ - STATION NOT QUALITY CONTROLLED BY THE NATIONAL WEATHER SERVICE.
    USE DATA WITH CAUTION...ESPECIALLY DEWPOINT AND RELATIVE
    HUMIDITY OBSERVATIONS.

INZ001>003-010>013-019-020-280700-
NORTHWEST INDIANA

CITY           SKY/WX    TMP DP  RH WIND       PRES   REMARKS

$$

LMZ046-743>745-280700-
SOUTHERN LAKE MICHIGAN

STATION/POSITION TIME  TEMP    WIND        PRES    WAVE
                       AIR SEA DIR/SP/G            HT
                 (UTC) (F)     (DEG/KT/KT) (MB)    (FT)
BURNS HARBOR     0500   60     180/  3/  4 1021.3R
MICHIGAN CITY    0500   61     100/  3/  4   N/A
5NW MICH CITY    0500   56 53  170/  4/  4   N/A     0

$$

INZ004-005-014>016-021>024-280700-
NORTH CENTRAL INDIANA

CITY           SKY/WX    TMP DP  RH WIND       PRES   REMARKS
GOSHEN         CLEAR     56  54  93 CALM      30.16R
6HR MIN TEMP:  55; 6HR MAX TEMP:  69;

SOUTH BEND     CLEAR     56  52  86 CALM      30.17R
6HR MIN TEMP:  54; 6HR MAX TEMP:  69;


$$

INZ006>009-017-018-025>027-280700-
NORTHEAST INDIANA

CITY           SKY/WX    TMP DP  RH WIND       PRES   REMARKS
ANGOLA *+      CLEAR     57  55  94 N5        30.15R
FORT WAYNE     PTCLDY    59  56  89 CALM      30.16R
6HR MIN TEMP:  59; 6HR MAX TEMP:  72;


$$

INZ028-029-035-036-043>045-051>053-280700-
WEST CENTRAL INDIANA

CITY           SKY/WX    TMP DP  RH WIND       PRES   REMARKS
GREENCASTLE +  MOCLDY    63  55  77 N6        30.16S
LAFAYETTE      CLEAR     57  55  93 CALM      30.16R
6HR MIN TEMP:  57; 6HR MAX TEMP:  75;

TERRE HAUTE    PTCLDY    62  59  90 CALM      30.15R
6HR MIN TEMP:  62; 6HR MAX TEMP:  79;


$$

INZ030>032-037>040-046>048-054>057-064-065-280700-
CENTRAL INDIANA

CITY           SKY/WX    TMP DP  RH WIND       PRES   REMARKS
GREENWOOD *+   MOCLDY    68  61  77 NW6       30.17R
INDIANAPOLIS   MOCLDY    66  59  78 NE7       30.14R
6HR MIN TEMP:  66; 6HR MAX TEMP:  71; 6HR PCP:  0.03;

-EAGLE CREEK   PTCLDY    64  60  87 N3        30.15R
6HR MIN TEMP:  64; 6HR MAX TEMP:  69; 6HR PCP:  0.03;

KOKOMO *+      PTCLDY    59  55  88 CALM      30.16R
6HR MIN TEMP:  59; 6HR MAX TEMP:  73;

SHELBYVILLE    MOCLDY    69  65  86 S9        30.15R
6HR MIN TEMP:  69; 6HR MAX TEMP:  79;


$$

INZ033-034-041-042-049-050-058-059-280700-
EAST CENTRAL INDIANA

CITY           SKY/WX    TMP DP  RH WIND       PRES   REMARKS
MUNCIE         MOCLDY    64  60  87 NW5       30.16R
6HR MIN TEMP:  64; 6HR MAX TEMP:  72;


$$

INZ060-061-067>069-081>083-085>088-280700-
SOUTHWEST INDIANA

CITY           SKY/WX    TMP DP  RH WIND       PRES   REMARKS
EVANSVILLE     MOCLDY    67  64  90 SW5       30.16R
6HR MIN TEMP:  67; 6HR MAX TEMP:  75;

HUNTINGBURG *+ MOCLDY    64  61  88 S5        30.16S
6HR MIN TEMP:  64; 6HR MAX TEMP:  73;


$$

INZ062-063-066-070>080-084-089>092-280700-
SOUTH CENTRAL AND SOUTHEAST INDIANA

CITY           SKY/WX    TMP DP  RH WIND       PRES   REMARKS
BLOOMINGTON    MOCLDY    66  63  90 CALM      30.15S
6HR MIN TEMP:  66; 6HR MAX TEMP:  77;

SEYMOUR +      MOCLDY    64  61  88 SE3       30.15S

$$



USA.gov is the U.S. government's official web portal to all federal, state and local government web resources and services.